Location: Palmerston North
(40.3500°S, 175.6170°E)
Time: 11:36:26
(UTC+13:00)

Meteor 1-27 - Visible Passes

Search period start: 19 November 2019 00:00
Search period end: 29 November 2019 00:00
Orbit: 838 x 892 km, 81.3° (Epoch: 17 November)

Date Brightness Start Highest point End Pass type
(mag) Time Alt. Az. Time Alt. Az. Time Alt. Az.
19 Nov 6.4 05:15:05 10° NNE 05:20:00 30° E 05:24:53 10° SSE visible
20 Nov 6.3 05:07:25 10° NNE 05:12:20 30° E 05:17:13 10° SSE visible
21 Nov 6.3 04:59:46 10° NNE 05:04:40 30° E 05:09:33 10° SSE visible
22 Nov 6.2 04:52:06 10° NNE 04:57:00 30° E 05:01:52 10° SSE visible
23 Nov 6.2 04:44:26 10° NNE 04:49:20 30° E 04:54:12 10° SSE visible
24 Nov 6.1 04:36:47 10° NNE 04:41:40 30° E 04:46:32 10° SSE visible
25 Nov 6.1 04:29:07 10° NNE 04:33:59 30° E 04:38:51 10° SSE visible
26 Nov 6.1 04:21:27 10° NNE 04:26:19 30° E 04:31:11 10° SSE visible
27 Nov 6.0 04:13:47 10° NNE 04:18:39 30° E 04:23:30 10° SSE visible
28 Nov 6.0 04:06:07 10° NNE 04:10:59 30° E 04:15:50 10° SSE visible
